DateTimeUTC,F1_A11,F1_S11,BsB_S11,BsG_S11,BsR_S11,BbsB_S11,BbsG_S11,BbsR_S11,BaB_A11,BaG_A11,BaR_A11,Tu_S11,T_S11,Uu_S11,U_S11,P_S11,T1_A11
2021-10-05T16:00:00Z,00000200,20000000,,,,,,,0000.89,0000.77,0000.68,17.4,24.1,03.6,02.4,0669.2,30.9
2021-10-05T16:01:00Z,00000200,20000000,,,,,,,0000.19,0000.28,0000.76,17.4,24.1,03.6,02.4,0669.2,30.9
2021-10-05T16:02:00Z,00000200,20000000,,,,,,,0000.56,0000.59,0000.22,17.5,24.1,03.8,02.5,0669.2,30.9
2021-10-05T16:03:00Z,00000200,60000000,,,,,,,0000.70,0000.63,0000.04,17.5,24.1,03.9,02.6,0669.2,31.0
2021-10-05T16:04:00Z,00000200,40000000,0000.94,0000.18,0000.44,-000.24,0000.21,0000.00,0000.73,0000.82,0000.79,17.8,24.1,04.5,03.1,0670.1,31.0
2021-10-05T16:05:00Z,00000200,00000000,0000.86,0000.25,0000.46,0000.65,0000.28,-000.15,0000.28,-000.28,-000.02,17.9,24.1,04.6,03.1,0670.1,31.0
2021-10-05T16:06:00Z,00000200,00000000,0000.63,0000.38,0000.19,-000.19,0000.12,0000.13,-000.63,-000.28,-000.51,17.9,24.1,04.5,03.1,0670.1,30.9
2021-10-05T16:07:00Z,00000200,00000000,0000.53,0000.19,0000.04,-000.68,-000.21,0000.06,0000.50,0000.36,0000.58,17.9,24.0,04.5,03.0,0670.1,30.9
2021-10-05T16:08:00Z,00000200,00000000,0000.12,0000.41,0000.39,-000.29,0000.11,0000.28,0000.71,0000.68,0000.31,17.9,24.0,04.5,03.1,0670.2,30.9
2021-10-05T16:09:00Z,00000200,00000000,0000.31,0000.35,0000.28,-000.20,0000.15,-000.18,0000.19,0000.02,0000.42,17.8,24.0,04.4,03.0,0670.2,30.9
2021-10-05T16:10:00Z,00000200,00000000,0000.99,0000.37,0000.40,-000.23,0000.40,0000.10,0000.40,0000.01,0000.07,17.8,24.0,04.5,03.1,0670.2,30.9
2021-10-05T16:11:00Z,00000200,00000000,0000.50,0000.02,-000.13,-000.00,0000.18,-000.17,0000.41,0000.57,0000.35,17.8,24.0,04.5,03.1,0670.2,30.9
2021-10-05T16:12:00Z,00000200,00000000,0000.48,0000.46,0000.40,0000.00,0000.07,-000.23,0000.43,0000.81,0000.37,17.7,24.0,04.7,03.2,0670.2,30.9
2021-10-05T16:13:00Z,00000200,00000000,0001.12,0000.48,0000.47,-000.36,0000.05,-000.13,0000.79,0000.39,0000.50,17.7,24.0,04.8,03.3,0670.1,30.9
2021-10-05T16:14:00Z,00000200,00000000,0000.93,0000.25,0000.40,-000.16,0000.17,0000.06,0000.39,0000.59,0000.63,17.7,23.9,04.8,03.3,0670.1,30.9
2021-10-05T16:15:00Z,00000200,00000000,-000.24,0000.19,0000.14,-000.06,-000.28,-000.26,0000.64,0000.43,0000.54,17.7,23.9,04.8,03.3,0670.1,30.9
2021-10-05T16:16:00Z,00000200,00000000,0001.20,0000.48,0000.50,-000.22,-000.01,0000.30,0000.41,0000.80,0000.64,17.8,23.9,04.9,03.3,0670.1,30.9
2021-10-05T16:17:00Z,00000200,00000000,0000.88,0000.63,0000.40,0000.08,0000.13,-000.08,0000.32,0000.41,0000.27,17.9,24.0,04.8,03.3,0670.1,30.9
2021-10-05T16:18:00Z,00000200,00000000,0000.94,0000.29,0000.01,0000.09,0000.13,0000.04,0000.88,0000.59,0000.57,18.0,24.1,04.7,03.2,0670.2,30.9
2021-10-05T16:19:00Z,00000200,00000000,0001.16,0000.42,0000.19,0000.40,0000.31,-000.21,-000.12,0000.08,0000.06,18.0,24.1,04.6,03.2,0670.1,31.0
2021-10-05T16:20:00Z,00000200,00000000,0000.47,0000.41,0000.17,0000.31,0000.05,0000.12,0000.37,0000.55,0000.38,18.0,24.1,04.3,03.0,0670.1,30.9
2021-10-05T16:21:00Z,00000200,00000000,0000.01,0000.33,-000.05,0000.33,0000.41,0000.08,0000.05,-000.24,-000.19,18.0,24.1,04.1,02.8,0670.2,30.9
2021-10-05T16:22:00Z,00000200,00000000,0000.28,0000.18,-000.02,0000.11,0000.22,-000.02,0000.13,0000.13,0000.36,18.0,24.1,04.1,02.8,0670.2,30.9
2021-10-05T16:23:00Z,00000200,00000000,0000.29,0000.47,0000.24,-000.06,0000.17,-000.35,0000.21,0000.30,0000.38,17.9,24.1,03.9,02.7,0670.2,30.9
2021-10-05T16:24:00Z,00000200,00000000,0000.63,0000.54,0000.31,0000.23,0000.11,0000.12,0000.30,0000.32,-000.06,17.9,24.0,03.8,02.6,0670.2,30.9
2021-10-05T16:25:00Z,00000200,00000000,0000.61,0000.07,0000.15,0000.05,-000.40,0000.15,0000.67,0000.18,0000.51,17.9,24.0,03.9,02.7,0670.3,30.9
2021-10-05T16:26:00Z,00000200,00000000,0000.86,0000.16,0000.29,-000.00,0000.29,-000.19,0000.30,0000.40,0000.21,17.9,24.0,04.2,02.9,0670.2,30.9
2021-10-05T16:27:00Z,00000200,00000000,0000.79,-000.16,0000.33,0000.26,0000.32,-000.04,0000.34,0000.60,0000.32,17.8,24.0,04.3,03.0,0670.2,30.9
2021-10-05T16:28:00Z,00000200,00000000,0000.62,0000.24,0000.01,0000.06,0000.17,0000.09,0000.80,0000.28,0000.52,17.8,24.0,04.4,03.0,0670.3,30.9
2021-10-05T16:29:00Z,00000200,00000000,0000.71,-000.05,0000.15,0000.12,0000.03,-000.41,-000.07,0000.23,0000.26,17.8,24.0,04.4,03.0,0670.3,30.9
2021-10-05T16:30:00Z,00000200,00000000,0001.06,0000.19,0000.11,-000.08,-000.03,-000.30,0000.02,0000.19,0000.07,17.8,24.0,04.3,02.9,0670.3,30.9
2021-10-05T16:31:00Z,00000200,00000000,0000.59,0000.49,0000.14,0000.21,0000.03,0000.05,-000.09,0000.38,0000.41,17.9,24.0,03.9,02.7,0670.3,30.9
2021-10-05T16:32:00Z,00000200,00000000,0000.90,0000.07,0000.20,0000.51,0000.09,-000.11,0000.20,-000.66,-000.55,18.0,24.1,03.6,02.5,0670.3,30.9
2021-10-05T16:33:00Z,00000200,00000000,0000.75,0000.37,0000.37,-000.00,0000.02,-000.27,-000.63,-000.32,-000.17,18.0,24.1,03.3,02.3,0670.3,30.9
2021-10-05T16:34:00Z,00000200,00000000,-000.22,0000.43,0000.52,0000.35,0000.16,0000.08,-000.08,0000.13,0000.34,18.0,24.1,03.0,02.0,0670.3,31.0
2021-10-05T16:35:00Z,00000200,00000000,0000.47,-000.06,0000.19,-000.13,0000.08,-000.29,0000.41,0000.45,0000.23,18.0,24.1,02.8,01.9,0670.3,31.0
2021-10-05T16:36:00Z,00000200,00000000,0000.79,0000.26,0000.09,0000.17,-000.11,-000.19,0000.10,-000.35,-000.11,18.0,24.1,02.7,01.8,0670.3,30.9
2021-10-05T16:37:00Z,00000200,00000000,0000.31,0000.38,0000.11,-000.06,0000.15,-000.05,0000.44,0000.33,0000.25,17.9,24.1,02.7,01.8,0670.2,30.9
2021-10-05T16:38:00Z,00000200,00000000,0000.82,0000.26,0000.10,-000.11,0000.27,-000.13,0000.49,0000.53,0000.51,17.9,24.1,02.8,01.9,0670.2,30.9
2021-10-05T16:39:00Z,00000200,00000000,0001.26,0000.25,0000.38,-000.00,0000.03,-000.00,0000.26,0000.79,0000.10,17.9,24.1,02.9,02.0,0670.2,30.9
2021-10-05T16:40:00Z,00000200,00000000,0000.56,0000.26,0000.24,0000.09,-000.03,0000.30,0000.30,-000.17,0000.47,17.8,24.0,03.0,02.0,0670.3,30.9
2021-10-05T16:41:00Z,00000200,00000000,0000.67,0000.24,0000.02,0000.51,-000.06,0000.03,0000.35,0000.31,0000.10,17.8,24.0,02.9,02.0,0670.3,30.9
2021-10-05T16:42:00Z,00000200,00000000,0000.55,0000.24,0000.21,0001.12,0000.33,-000.12,-000.13,0000.00,0000.19,17.8,24.0,03.0,02.0,0670.3,30.9
2021-10-05T16:43:00Z,00000200,00000000,0000.99,0000.22,0000.09,0000.25,0000.29,0000.09,0000.01,-000.33,-000.39,17.7,24.0,02.7,01.9,0670.3,30.9
2021-10-05T16:44:00Z,00000200,00000000,0000.89,0000.22,0000.42,0000.08,0000.19,0000.04,-000.13,0000.03,0000.21,17.7,24.0,02.5,01.7,0670.2,30.9
2021-10-05T16:45:00Z,00000200,00000000,0000.30,0000.27,0000.10,0000.60,0000.26,-000.09,0000.10,0000.79,0000.43,17.7,24.0,02.3,01.6,0670.2,30.9
2021-10-05T16:46:00Z,00000200,01000000,0001.02,0000.16,0000.17,0000.24,0000.26,0000.22,0000.30,-000.44,0000.15,17.8,24.0,02.1,01.4,0670.2,30.9
2021-10-05T16:47:00Z,00000200,00000000,0000.13,0000.33,0000.29,0000.12,-000.10,-000.00,-000.28,0000.16,-000.02,17.9,24.0,01.9,01.3,0670.2,31.0
2021-10-05T16:48:00Z,00000200,01000000,0000.71,0000.05,0000.17,0000.40,0000.27,-000.26,-000.38,-000.52,-000.06,18.0,24.1,01.8,01.2,0670.2,31.0
2021-10-05T16:49:00Z,00000200,01000000,-000.47,0000.17,-000.29,-000.23,0000.09,-000.01,-000.26,0000.20,-000.43,18.0,24.1,01.6,01.1,0670.2,31.0
2021-10-05T16:50:00Z,00000200,01000000,-000.00,0000.23,0000.21,-000.25,0000.20,0000.38,0000.03,-000.40,-000.03,18.0,24.1,01.4,01.0,0670.2,31.0
2021-10-05T16:51:00Z,00000200,01000000,0000.54,0000.44,0000.34,0000.07,0000.19,0000.40,0000.03,-000.07,0000.24,18.0,24.2,01.4,00.9,0670.2,31.0
2021-10-05T16:52:00Z,00000200,01000000,0000.28,0000.54,-000.20,-000.16,0000.21,-000.27,0000.70,0000.72,0000.34,18.0,24.1,01.4,01.0,0670.2,30.9
2021-10-05T16:53:00Z,00000200,01000000,0000.95,0000.24,-000.08,0000.36,0000.03,-000.34,0000.64,0000.70,0000.37,17.9,24.1,01.6,01.1,0670.2,30.9
2021-10-05T16:54:00Z,00000200,01000000,0001.08,0000.20,0000.01,-000.10,-000.18,-000.34,0000.15,-000.06,0000.22,17.9,24.1,01.8,01.2,0670.2,30.9
2021-10-05T16:55:00Z,00000200,01000000,0000.54,0000.24,0000.26,-000.57,0000.10,-000.02,0000.67,0000.30,0000.51,17.9,24.1,01.8,01.2,0670.2,30.9
2021-10-05T16:56:00Z,00000200,00000000,0000.58,0000.22,0000.07,0000.35,0000.06,-000.03,-000.26,0000.49,-000.19,17.8,24.1,02.0,01.4,0670.2,30.9
2021-10-05T16:57:00Z,00000200,40000000,,,,,,,0001.03,0000.95,0001.10,17.9,24.1,02.2,01.5,0670.1,30.9
2021-10-05T16:58:00Z,00000200,60000000,,,,,,,-000.34,-000.41,-000.64,17.5,24.2,02.3,01.5,0669.2,30.9
2021-10-05T16:59:00Z,00000200,20000000,,,,,,,-000.02,0000.25,-000.01,17.5,24.3,02.1,01.4,0669.2,30.9
